Location: Madrid
(40.4000°N, 3.6830°W)
Time: 07:03:21
(UTC+01:00)

ISS - Pass Details

Date: 01 December 2020
Orbit: 418 x 420 km, 51.6° (Epoch: 04 December)

Event Time Altitude Azimuth Distance (km) Brightness Sun altitude
Rises 19:00:47 0° 308° (NW) 2,364 0.6 -13.4°
Reaches altitude 10° 19:03:47 10° 338° (NNW) 1,499 -0.9 -14.0°
Maximum altitude 19:05:28 13° 8° (N) 1,322 -1.5 -14.3°
Enters shadow 19:05:53 13° 16° (NNE) 1,333 -1.5 -14.4°
